Van Nuys Airport Van Nuys US
ICAO: KVNY
IATA: VNY
Category: Medium
Scheduled Services: No

Elevation: 802 ft
TransAlt. 18000 ft.

Airport Communications:
SOCAL APP/DEP:120.4
ATIS:118.45
CLNC DEL:126.6
CTAF:119.3
GND:121.7
TWR:119
UNICOM:122.95

KVNY Zoom In..

If you have problems with the map follow the link
https://www.worldairports.se/pages/airport.php?
ICAO=KVNY

Runways:

(A) RW 16L length 4013 ft width 75 ft
---- / hdg 161

(B) RW 16R length 8001 ft width 150 ft
ILS 111.30 / hdg 161

(C) RW 34L length 8001 ft width 150 ft
---- / hdg 341

(D) RW 34R length 4013 ft width 75 ft
---- / hdg 341

Location; KVNY
Day. 27 / Time. 05.51 Zulu
* Altimeter: 30.13
* Temperature: 17° c. 62.6°f.
* Wind from: 330° Speed 11 kn with Gusts up to 22 kn.
Dewpoint: 05° c.
Visibility: 10 Statute Miles.
Clouds: Clear (automated report).

KVNY 270551Z 33011G22KT 10SM CLR 17/05 A3013 RMK AO2 SLP199 T01670050 10178 20150 50001


Wind From 330°
Speed 11 kn.

 
 
jpsmedia worldairports.se 2020   terms of use